Location: Artiguedieu
(43.5000°N, 0.5454°E)
Time: 20:43:07
(UTC+00:00)

SR - Pass Details

Date: 13 August 2021
Orbit: 581 x 874 km, 66.7° (Epoch: 20 September)

Event Time Altitude Azimuth Distance (km) Brightness Sun altitude
Exits shadow 02:21:30 28° 151° (SSE) 1,518 ? -23.8°
Maximum altitude 02:23:26 36° 112° (ESE) 1,281 ? -23.6°
Drops below altitude 10° 02:28:24 10° 47° (NE) 2,363 ? -23.0°
Sets 02:30:53 0° 40° (NE) 3,250 ? -22.7°
